Flag for Canada Weather past 2 weeks in Victoria, British Columbia, Canada

Now
48 °F

Broken clouds.


Feels Like: 45 °F
Forecast: 44 / 53 °F
Wind: 7 mph from West

Location: Victoria Int. Airportb. C.


UV Index: 3 (Moderate)

Visibility: 30 mi


Pressure: 29.77 "Hg

Humidity: 76%

Dew point: 41 °F

Location of VictoriaLocation

Historic Weather in Victoria

°F

Victoria temperature yesterday

Maximum temperature yesterday: 52 °F (at 12:00 PM)
Minimum temperature yesterday: 46 °F (at 12:00 AM)
Average temperature yesterday: 49 °F

Past Weeks' High & Low Weather Summary

 TemperatureHumidityPressure
High63 °F (Apr 11, 2:00 PM)100% (Apr 8, 5:00 AM)30.35 "Hg (Apr 8, 5:00 AM)
Low36 °F (Apr 14, 5:00 AM)27% (Apr 13, 5:00 PM)29.69 "Hg (Apr 17, 7:00 PM)
Average49 °F76%30.08 "Hg
* Reported Apr 2 8:00 PM — Apr 17 8:00 PM, Victoria, Weather by CustomWeather, © 2014

Note: Actual official high and low records may vary slightly from our data, if they occured in-between our weather recording intervals... More about our weather records

Advertising

Historic Weather Conditions — Data for Previous 24 hours

 ConditionsComfort  
Time TempWeatherWind HumidityBarometerVisibility
8:00 PM
Apr 17
48 °FScattered clouds.15 mph76%29.71 "Hg30 mi
7:00 PM48 °FPartly sunny.14 mph82%29.69 "Hg30 mi
6:00 PM50 °FLight rain. Overcast.16 mph82%29.70 "Hg10 mi
5:00 PM52 °FLight rain. Overcast.3 mph88%29.70 "Hg10 mi
4:00 PM52 °FLight rain. Overcast.9 mph88%29.71 "Hg20 mi
3:00 PM52 °FLight rain. Overcast.9 mph94%29.72 "Hg30 mi
2:00 PM52 °FOvercast.10 mph94%29.74 "Hg30 mi
1:00 PM54 °FBroken clouds.13 mph88%29.75 "Hg30 mi
12:00 PM52 °FPartly sunny.9 mph94%29.77 "Hg20 mi
11:00 AM52 °FMore clouds than sun.6 mph88%29.78 "Hg20 mi
10:00 AM50 °FLight rain. Low clouds.9 mph94%29.80 "Hg10 mi
9:00 AM50 °FLight rain. Mostly cloudy.9 mph94%29.81 "Hg15 mi
8:00 AM48 °FLight rain. Low clouds.10 mph100%29.82 "Hg15 mi
7:00 AM48 °FLight rain. Mostly cloudy.9 mph94%29.82 "Hg20 mi
6:45 AM50 °FLight rain. Mostly cloudy.7 mph88%29.82 "Hg20 mi
6:00 AM50 °FMostly cloudy.10 mph82%29.82 "Hg30 mi
5:00 AM50 °FMostly cloudy.8 mph82%29.82 "Hg30 mi
4:00 AM48 °FOvercast.6 mph87%29.84 "Hg30 mi
3:00 AM48 °FMostly cloudy.7 mph94%29.84 "Hg15 mi
2:00 AM50 °FLight rain. Fog.3 mph94%29.85 "Hg3 mi
1:00 AM48 °FLight rain. Fog.6 mph100%29.86 "Hg1 mi
12:00 AM48 °FLight rain. Fog.2 mph100%29.88 "Hg1 mi
11:00 PM
Apr 16
48 °FLight rain. Fog.8 mph100%29.89 "Hg2 mi
10:00 PM50 °FLight rain. Fog.6 mph94%29.93 "Hg1 mi
9:00 PM48 °FLight rain. Fog.7 mph100%29.94 "Hg2 mi
Weather by CustomWeather, © 2014

See weather overview